KB7STN Weather Reports


time (UTC)temp
C
wind
direction
speed
KPH
gust
KPH
rain 1hr
cm
rain 24hr
cm
rain mn
cm
humidity
%
barometer
mb
20260506035716 8 169 0.0 0.0 0.00 0.00 0.00 64 1002.3
20260506035216 9 169 0.0 0.0 0.00 0.00 0.00 64 1002.3
20260506034716 9 169 0.0 0.0 0.00 0.00 0.00 63 1002.3
20260506034216 9 169 0.0 0.0 0.00 0.00 0.00 63 1002.3
20260506033716 9 169 0.0 0.0 0.00 0.00 0.00 64 1002.2
20260506033216 9 169 0.0 0.0 0.00 0.00 0.00 63 1002.0
20260506032716 9 169 0.0 0.0 0.00 0.00 0.00 63 1002.0
20260506032216 9 169 0.0 0.0 0.00 0.00 0.00 62 1002.0
20260506031716 10 169 0.0 0.0 0.00 0.00 0.00 62 1001.8
20260506031216 10 169 0.0 0.0 0.00 0.00 0.00 61 1001.8
20260506030716 10 169 0.0 0.0 0.00 0.00 0.00 61 1001.8
20260506030216 10 169 0.0 0.0 0.00 0.00 0.00 60 1001.7
20260506025716 10 169 0.0 0.0 0.00 0.00 0.00 59 1001.6
20260506025216 10 169 0.0 0.0 0.00 0.00 0.00 59 1001.6
20260506024716 11 169 0.0 0.0 0.00 0.00 0.00 59 1001.5
20260506024216 11 169 0.0 0.0 0.00 0.00 0.00 58 1001.4
20260506023716 11 169 0.0 0.0 0.00 0.00 0.00 57 1001.4
20260506023216 11 169 0.0 0.0 0.00 0.00 0.00 57 1001.3
20260506022716 11 169 0.0 0.0 0.00 0.00 0.00 56 1001.3
20260506022216 11 169 0.0 0.0 0.00 0.00 0.00 55 1001.1
20260506021716 11 169 0.0 0.0 0.00 0.00 0.00 55 1001.1
20260506021216 11 169 1.6 6.4 0.00 0.00 0.00 54 1001.1
20260506020716 11 168 1.6 3.2 0.00 0.00 0.00 54 1001.1
20260506020216 12 167 1.6 6.4 0.00 0.00 0.00 54 1001.0
20260506015716 12 167 1.6 4.8 0.00 0.00 0.00 54 1001.1
20260506015216 12 166 1.6 6.4 0.00 0.00 0.00 54 1001.0
20260506014716 12 165 1.6 4.8 0.00 0.00 0.00 53 1001.1
20260506014216 12 165 1.6 4.8 0.00 0.00 0.00 53 1001.0
20260506013716 12 165 1.6 4.8 0.00 0.00 0.00 52 1001.0
20260506013216 13 165 1.6 6.4 0.00 0.00 0.00 51 1001.0
20260506012716 13 165 0.0 4.8 0.00 0.00 0.00 51 1000.9
20260506012216 13 165 0.0 0.0 0.00 0.00 0.00 51 1000.8
20260506011716 13 165 1.6 3.2 0.00 0.00 0.00 51 1000.9
20260506011216 13 165 3.2 6.4 0.00 0.00 0.00 51 1000.8
20260506010716 13 165 3.2 9.7 0.00 0.00 0.00 50 1000.9
20260506010216 13 182 3.2 6.4 0.00 0.00 0.00 51 1000.9
20260506005716 13 181 3.2 6.4 0.00 0.00 0.00 50 1000.8
20260506005216 13 181 3.2 8.0 0.00 0.00 0.00 51 1000.8
20260506004716 13 163 3.2 8.0 0.00 0.00 0.00 51 1000.8
20260506004216 13 164 3.2 9.7 0.00 0.00 0.00 51 1000.8
20260506003716 13 184 3.2 8.0 0.00 0.00 0.00 51 1000.8
20260506003216 13 194 3.2 6.4 0.00 0.00 0.00 51 1000.7
20260506002716 13 188 3.2 6.4 0.00 0.00 0.00 51 1000.7
20260506002216 13 188 3.2 9.7 0.00 0.00 0.00 51 1000.8
20260506001716 13 154 3.2 9.7 0.00 0.00 0.00 51 1000.8
20260506001216 13 159 1.6 9.7 0.00 0.00 0.00 52 1000.8
20260506000716 13 164 1.6 4.8 0.00 0.00 0.00 52 1000.7
20260506000219 13 164 3.2 6.4 0.00 0.00 0.00 52 1000.8
20260505235716 13 164 1.6 8.0 0.00 0.00 0.00 52 1000.9
20260505235216 13 161 1.6 3.2 0.00 0.00 0.00 53 1000.8
20260505234716 13 161 1.6 6.4 0.00 0.00 0.00 53 1000.8
20260505234216 13 160 1.6 11.3 0.00 0.00 0.00 54 1000.9
20260505233716 13 180 3.2 6.4 0.00 0.00 0.00 52 1000.8
20260505233216 13 178 3.2 9.7 0.00 0.00 0.00 52 1000.8
20260505232716 13 201 1.6 9.7 0.00 0.00 0.00 53 1000.8
20260505232216 13 193 1.6 8.0 0.00 0.00 0.00 54 1000.9
20260505231716 13 184 1.6 6.4 0.00 0.00 0.00 54 1000.9
20260505231216 13 184 1.6 6.4 0.00 0.00 0.00 56 1001.0
20260505230716 13 185 1.6 6.4 0.00 0.00 0.00 56 1001.0
20260505230216 12 186 1.6 4.8 0.00 0.00 0.00 57 1001.0
20260505225716 12 186 1.6 6.4 0.00 0.00 0.00 58 1001.1
20260505225216 12 185 1.6 6.4 0.00 0.00 0.00 61 1001.1
20260505224716 12 186 1.6 6.4 0.00 0.00 0.00 62 1001.2
20260505224216 11 186 1.6 4.8 0.00 0.00 0.00 61 1001.2
20260505223716 11 186 1.6 3.2 0.00 0.00 0.00 61 1001.3
20260505223216 11 186 0.0 4.8 0.00 0.00 0.00 62 1001.5
20260505222716 11 186 0.0 4.8 0.00 0.00 0.00 60 1001.6
20260505222216 11 186 1.6 1.6 0.00 0.00 0.00 61 1001.6
20260505221716 11 165 1.6 8.0 0.00 0.00 0.00 60 1001.6
20260505221216 12 163 1.6 4.8 0.00 0.00 0.00 58 1001.6
20260505220716 12 163 1.6 4.8 0.00 0.00 0.00 56 1001.7
20260505220216 12 163 1.6 3.2 0.00 0.00 0.00 53 1001.7
20260505215716 12 163 1.6 4.8 0.00 0.00 0.00 52 1001.7
20260505215216 12 163 1.6 4.8 0.00 0.00 0.00 53 1001.6
20260505214716 12 163 3.2 6.4 0.00 0.00 0.00 52 1001.7
20260505214216 12 165 3.2 6.4 0.00 0.00 0.00 52 1001.6
20260505213716 12 166 3.2 8.0 0.00 0.00 0.00 53 1001.6
20260505213216 12 165 1.6 8.0 0.00 0.00 0.00 53 1001.6
20260505212717 12 163 3.2 4.8 0.00 0.00 0.00 54 1001.5
20260505212216 12 163 3.2 11.3 0.00 0.00 0.00 53 1001.5
20260505211716 12 175 3.2 4.8 0.00 0.00 0.00 54 1001.5
20260505211217 12 175 3.2 8.0 0.00 0.00 0.00 53 1001.5
20260505210716 12 173 3.2 8.0 0.00 0.00 0.00 54 1001.5
20260505210217 12 174 3.2 8.0 0.00 0.00 0.00 54 1001.5
20260505205717 12 178 3.2 9.7 0.00 0.00 0.00 55 1001.5
20260505205217 12 179 3.2 4.8 0.00 0.00 0.00 55 1001.6
20260505204717 12 179 3.2 6.4 0.00 0.00 0.00 55 1001.6
20260505204217 12 179 3.2 6.4 0.00 0.00 0.00 55 1001.5
20260505203717 12 178 1.6 8.0 0.00 0.00 0.00 55 1001.4
20260505203217 12 179 3.2 6.4 0.00 0.00 0.00 55 1001.5
20260505202717 12 175 3.2 6.4 0.00 0.00 0.00 55 1001.4
20260505202217 11 175 3.2 9.7 0.00 0.00 0.00 55 1001.5
20260505201717 11 177 3.2 8.0 0.00 0.00 0.00 55 1001.4
20260505201217 11 174 3.2 9.7 0.00 0.00 0.00 55 1001.4
20260505200717 11 177 3.2 8.0 0.00 0.00 0.00 55 1001.5
20260505200217 11 175 3.2 8.0 0.00 0.00 0.00 55 1001.4
20260505195717 11 173 3.2 6.4 0.00 0.00 0.00 55 1001.3
20260505195217 11 173 3.2 6.4 0.00 0.00 0.00 58 1001.2
20260505194717 11 173 3.2 11.3 0.00 0.00 0.00 58 1001.3
20260505194217 11 171 3.2 8.0 0.00 0.00 0.00 56 1001.2
20260505193717 11 191 4.8 8.0 0.00 0.00 0.00 56 1001.3
20260505193217 11 184 4.8 9.7 0.00 0.00 0.00 57 1001.3
20260505192743 11 194 4.8 8.0 0.00 0.00 0.00 58 1001.2
20260505192217 11 190 4.8 8.0 0.00 0.00 0.00 57 1001.2
20260505191717 11 203 4.8 8.0 0.00 0.00 0.00 57 1001.1
20260505191217 11 213 4.8 9.7 0.00 0.00 0.00 58 1001.2
20260505190717 11 197 4.8 8.0 0.00 0.00 0.00 59 1001.1
20260505190217 11 170 6.4 11.3 0.00 0.00 0.00 58 1001.2
20260505185717 11 207 6.4 11.3 0.00 0.00 0.00 58 1001.2
20260505185217 11 207 6.4 12.9 0.00 0.00 0.00 59 1001.1
20260505184717 11 184 4.8 14.5 0.00 0.00 0.00 59 1001.2
20260505184217 11 202 6.4 11.3 0.00 0.00 0.00 59 1001.1
20260505183717 11 195 6.4 16.1 0.00 0.00 0.00 60 1001.0
20260505183217 11 180 6.4 14.5 0.00 0.00 0.00 61 1001.0
20260505182717 10 229 6.4 14.5 0.00 0.00 0.00 61 1001.0
20260505182217 10 213 6.4 9.7 0.00 0.00 0.00 62 1000.9
20260505181717 10 179 4.8 14.5 0.00 0.00 0.00 63 1000.8
20260505181217 10 201 4.8 11.3 0.00 0.00 0.00 62 1000.8
20260505180717 10 211 4.8 8.0 0.00 0.00 0.00 63 1001.0
20260505180217 10 209 6.4 11.3 0.00 0.00 0.00 62 1001.1
20260505175717 10 152 4.8 14.5 0.00 0.00 0.00 63 1001.0
20260505175217 10 217 4.8 12.9 0.00 0.00 0.00 62 1001.0
20260505174717 10 193 4.8 8.0 0.00 0.00 0.00 63 1001.0
20260505174217 10 219 4.8 9.7 0.00 0.00 0.00 63 1001.0
20260505173717 10 213 6.4 12.9 0.00 0.00 0.00 63 1000.9
20260505173217 10 201 6.4 11.3 0.00 0.00 0.00 63 1000.9
20260505172717 10 212 6.4 12.9 0.00 0.00 0.00 65 1000.7
20260505172217 10 211 6.4 14.5 0.00 0.00 0.00 67 1000.8
20260505171717 9 225 6.4 12.9 0.00 0.00 0.00 68 1000.7
20260505171217 9 221 6.4 12.9 0.00 0.00 0.00 68 1000.7
20260505170719 9 220 4.8 11.3 0.00 0.00 0.00 68 1000.8
20260505170217 8 213 4.8 11.3 0.00 0.00 0.00 70 1000.7
20260505165717 8 217 4.8 12.9 0.00 0.00 0.00 71 1000.8
20260505165217 8 206 6.4 11.3 0.00 0.00 0.00 72 1000.8
20260505164717 8 193 6.4 11.3 0.00 0.00 0.00 73 1000.7
20260505164217 8 205 4.8 9.7 0.00 0.00 0.00 74 1000.7
20260505163717 8 159 4.8 11.3 0.00 0.00 0.00 74 1000.7
20260505163217 8 182 4.8 9.7 0.00 0.00 0.00 74 1000.8
20260505162717 8 179 4.8 8.0 0.00 0.00 0.00 74 1000.8
20260505162217 8 173 6.4 11.3 0.00 0.00 0.00 73 1000.9
20260505161717 8 177 6.4 11.3 0.00 0.00 0.00 72 1000.9
20260505161217 8 161 6.4 16.1 0.00 0.00 0.00 71 1000.9
20260505160717 8 198 6.4 11.3 0.00 0.00 0.00 70 1000.9
20260505160217 8 163 6.4 11.3 0.00 0.00 0.00 70 1000.9
20260505153308 8 221 6.4 14.5 0.00 0.00 0.00 68 1000.2
20260505152717 8 179 6.4 11.3 0.00 0.00 0.00 67 1000.2
20260505152217 9 185 6.4 14.5 0.00 0.00 0.00 66 1000.2
20260505151717 9 177 4.8 11.3 0.00 0.00 0.00 66 1000.1
20260505151217 9 206 4.8 8.0 0.00 0.00 0.00 66 1000.1
20260505150717 9 209 4.8 11.3 0.00 0.00 0.00 65 1000.0
20260505150217 9 202 3.2 8.0 0.00 0.00 0.00 64 1000.1
20260505140217 10 221 3.2 11.3 0.00 0.00 0.00 59 999.6
20260505130217 11 223 3.2 6.4 0.00 0.00 0.00 58 998.5
20260505124717 11 224 3.2 6.4 0.00 0.00 0.00 55 998.2
20260505124217 11 224 3.2 8.0 0.00 0.00 0.00 57 998.2
20260505123717 11 226 3.2 9.7 0.00 0.00 0.00 59 998.1
20260505123217 11 227 3.2 9.7 0.00 0.00 0.00 62 998.0
20260505122717 11 212 1.6 4.8 0.00 0.00 0.00 63 998.0
20260505122217 11 212 1.6 8.0 0.00 0.00 0.00 64 998.0
20260505121717 11 211 1.6 4.8 0.00 0.00 0.00 66 998.1
20260505121217 11 211 1.6 6.4 0.00 0.00 0.00 66 998.2
20260505120717 11 211 1.6 4.8 0.00 0.00 0.00 65 998.3
20260505120217 11 212 1.6 3.2 0.00 0.00 0.00 63 998.3
20260505115717 11 212 1.6 4.8 0.00 0.00 0.00 63 998.4
20260505115217 11 212 1.6 4.8 0.00 0.00 0.00 62 998.4
20260505114717 11 212 1.6 6.4 0.00 0.00 0.00 60 998.4
20260505114217 11 212 1.6 6.4 0.00 0.00 0.00 60 998.4
20260505113717 11 212 0.0 4.8 0.00 0.00 0.00 59 998.4
20260505113217 11 212 0.0 0.0 0.00 0.00 0.00 58 998.4
20260505112717 11 212 0.0 3.2 0.00 0.00 0.00 57 998.4
20260505112217 11 212 0.0 0.0 0.00 0.00 0.00 58 998.4
20260505111717 11 212 0.0 0.0 0.00 0.00 0.00 58 998.3
20260505111217 11 212 0.0 3.2 0.00 0.00 0.00 58 998.3
20260505110718 11 212 0.0 3.2 0.00 0.00 0.00 58 998.3
20260505110217 11 212 0.0 1.6 0.00 0.00 0.00 58 998.2
20260505102218 12 230 1.6 6.4 0.00 0.00 0.00 57 998.1
20260505101718 12 213 3.2 6.4 0.00 0.00 0.00 57 998.2
20260505101218 11 217 3.2 6.4 0.00 0.00 0.00 57 998.1
20260505100718 11 211 1.6 8.0 0.00 0.00 0.00 57 998.2
20260505100218 11 185 1.6 6.4 0.00 0.00 0.00 58 998.2
20260505095718 11 186 1.6 4.8 0.00 0.00 0.00 59 998.2
20260505095218 11 185 3.2 6.4 0.00 0.00 0.00 60 998.1
20260505094718 11 187 3.2 6.4 0.00 0.00 0.00 60 998.2
20260505094218 11 188 1.6 8.0 0.00 0.00 0.00 61 998.2
20260505093718 11 187 1.6 4.8 0.00 0.00 0.00 62 998.1
20260505093218 11 187 1.6 4.8 0.00 0.00 0.00 62 998.1
20260505092718 11 187 3.2 6.4 0.00 0.00 0.00 62 998.0
20260505092218 11 187 3.2 6.4 0.00 0.00 0.00 62 998.0
20260505091718 11 187 3.2 6.4 0.00 0.00 0.00 62 998.0
20260505091218 11 186 3.2 6.4 0.00 0.00 0.00 63 998.0
20260505090718 11 186 3.2 8.0 0.00 0.00 0.00 63 998.0
20260505090218 11 186 3.2 6.4 0.00 0.00 0.00 64 998.0
20260505085718 11 186 3.2 4.8 0.00 0.00 0.00 64 998.0
20260505085218 11 186 3.2 6.4 0.00 0.00 0.00 64 998.0
20260505084718 11 185 3.2 8.0 0.00 0.00 0.00 64 998.1
20260505084218 11 184 3.2 9.7 0.00 0.00 0.00 64 998.1
20260505083718 11 182 3.2 6.4 0.00 0.00 0.00 64 998.2
20260505083218 11 173 1.6 6.4 0.00 0.00 0.00 65 998.2
20260505082718 11 169 1.6 9.7 0.00 0.00 0.00 66 998.2
20260505082218 11 181 1.6 4.8 0.00 0.00 0.00 66 998.1
20260505081718 11 181 1.6 4.8 0.00 0.00 0.00 66 998.2
20260505081218 11 181 0.0 4.8 0.00 0.00 0.00 66 998.2
20260505080718 11 182 0.0 6.4 0.00 0.00 0.00 65 998.2
20260505080218 11 182 1.6 4.8 0.00 0.00 0.00 64 998.1
20260505075718 11 182 1.6 12.9 0.00 0.00 0.00 63 998.2
20260505075218 11 245 1.6 4.8 0.00 0.00 0.00 60 998.3
20260505074718 11 245 3.2 8.0 0.00 0.00 0.00 60 998.3
20260505074218 11 245 1.6 9.7 0.00 0.00 0.00 60 998.3
20260505073718 11 246 3.2 6.4 0.00 0.00 0.00 61 998.3
20260505073218 11 246 3.2 9.7 0.00 0.00 0.00 60 998.3
20260505072718 11 247 1.6 4.8 0.00 0.00 0.00 60 998.3
20260505072218 11 247 3.2 9.7 0.00 0.00 0.00 59 998.4
20260505071718 11 248 3.2 11.3 0.00 0.00 0.00 59 998.4
20260505071218 12 246 3.2 6.4 0.00 0.00 0.00 58 998.3
20260505070718 12 246 3.2 9.7 0.00 0.00 0.00 58 998.4
20260505070218 12 246 3.2 6.4 0.00 0.00 0.00 58 998.4
20260505065718 12 246 3.2 11.3 0.00 0.00 0.00 58 998.3
20260505065218 12 254 4.8 14.5 0.00 0.00 0.00 57 998.3
20260505064718 12 258 4.8 9.7 0.00 0.00 0.00 57 998.3
20260505064218 12 269 4.8 12.9 0.00 0.00 0.00 56 998.2
20260505063718 12 224 4.8 11.3 0.00 0.00 0.00 57 998.2
20260505063218 12 248 4.8 11.3 0.00 0.00 0.00 57 998.1
20260505062718 12 259 4.8 14.5 0.00 0.00 0.00 58 998.0
20260505062218 11 261 4.8 11.3 0.00 0.00 0.00 60 998.1
20260505061718 12 194 4.8 9.7 0.00 0.00 0.00 60 998.1
20260505061218 11 186 3.2 9.7 0.00 0.00 0.00 61 998.2
20260505060718 11 202 4.8 8.0 0.00 0.00 0.00 61 998.1
20260505060218 11 169 4.8 12.9 0.00 0.00 0.00 63 998.2
20260505055718 11 181 6.4 14.5 0.00 0.00 0.00 62 998.3
20260505055218 12 232 4.8 12.9 0.00 0.00 0.00 61 998.2
20260505054718 12 251 4.8 12.9 0.00 0.00 0.00 61 998.2
20260505054218 12 263 6.4 11.3 0.00 0.00 0.00 61 998.1
20260505053718 12 268 6.4 19.3 0.00 0.00 0.00 60 997.9
20260505053218 12 254 6.4 14.5 0.00 0.00 0.00 60 997.8
20260505052718 12 229 6.4 14.5 0.00 0.00 0.00 59 997.7
20260505052218 12 221 8.0 17.7 0.00 0.00 0.00 58 997.7
20260505051718 12 267 6.4 16.1 0.00 0.00 0.00 57 997.8
20260505051219 12 196 6.4 14.5 0.00 0.00 0.00 57 997.7
20260505050718 12 261 6.4 14.5 0.00 0.00 0.00 57 997.6
20260505050218 12 205 6.4 17.7 0.00 0.00 0.00 57 997.5
20260505041718 15 162 4.8 14.5 0.00 0.00 0.00 45 996.9
20260505041218 15 227 4.8 8.0 0.00 0.00 0.00 42 996.8
20260505040718 15 238 4.8 9.7 0.00 0.00 0.00 42 996.7
20260505040218 15 252 6.4 12.9 0.00 0.00 0.00 42 996.7